カタログに戻る

STARLINK-11698

運用中通信VLEO
NORAD 64325·PAYLOAD·🇺🇸 United States

打ち上げ Jun 10, 2025 から Cape Canaveral Space Force Station

Loading…

次のパス (今後24時間)

TLE

最新Source: CelesTrak SupGP

元期: Sep 14, 2026, 22:39 UTC

1 64325C 25124J   26257.94423611 -.00100390  00000+0 -77963-3 0  2572
2 64325  43.0003 328.3037 0001665 258.3879   0.9843 15.70891017    12

AllMySatでSTARLINK-11698をリアルタイム追跡

Download on the App Store